Location: Sabalos
(43.2860°N, 0.1414°E)
Time: 04:32:24
(UTC+00:00)

BREEZE-M DEB - Pass Details

Date: 05 July 2020
Orbit: 284 x 16012 km, 49.5° (Epoch: 06 August)

Event Time Altitude Azimuth Distance (km) Brightness Sun altitude
Rises 22:13:44 0° 297° (WNW) 2,639 7.2 -19.3°
Reaches altitude 10° 22:15:04 10° 299° (WNW) 2,047 6.5 -19.4°
Maximum altitude 22:19:15 83° 28° (NNE) 1,204 4.4 -19.8°
Drops below altitude 10° 22:36:57 10° 118° (ESE) 7,844 8.2 -21.1°
Sets 22:49:06 0° 120° (ESE) 11,658 9.1 -21.8°
